Regional Weather Roundup
Issued by NWS Northern Indiana

Current Version | Previous Version | Text Only | Print | Product List | Glossary On
Versions: 1 2 3 4 5 6 7 8 9 10 11 12 13 14 15 16 17 18 19 20 21 22 23 24 25 26 27 28 29 30 31 32 33 34 35 36 37 38 39 40 41 42 43 44 45 46 47 48 49 50
000
ASUS43 KIWX 111110
RWRIWX

KIWX WEATHER ROUNDUP
NATIONAL WEATHER SERVICE NORTHERN INDIANA
600 AM EST THU FEB 11 2016

NOTE: "FAIR" INDICATES FEW OR NO CLOUDS BELOW 12,000 FEET WITH NO
SIGNIFICANT WEATHER AND/OR OBSTRUCTIONS TO VISIBILITY.

* THESE STATIONS ARE NOT UNDER NWS QUALITY CONTROL. THEY ALSO MAY NOT
  REPORT WEATHER SUCH AS PRECIPITATION OR FOG.

INZ001>027-111200-
NORTHERN INDIANA

CITY           SKY/WX    TMP DP  RH WIND       PRES   REMARKS
GARY*          PTCLDY    12   0  57 W9        30.23R WCI   0
VALPARAISO     CLOUDY    13   4  67 W9        30.19R WCI   1
MICHIGAN CITY* CLOUDY    19   9  63 NW8       30.18R WCI   9
LAPORTE*       CLOUDY    19   8  61 NW6       30.17R WCI  11
KNOX*          CLOUDY    14   5  67 W9        30.19R WCI   2
SOUTH BEND     CLOUDY    15   9  76 NW5       30.16R WCI   8
GOSHEN         LGT SNOW  13   9  84 W5        30.14R FOG     WCI   5
MONTICELLO*    CLEAR      8  -1  67 NW6       30.20R WCI  -2
LOGANSPORT*    CLEAR     10   0  61 W6        30.20R WCI   1
ROCHESTER*     MOCLDY    14   3  62 W6        30.17R WCI   5
WARSAW*        CLOUDY    12   9  85 W8        30.15R WCI   1
ANGOLA*        CLOUDY    12  10  92 CALM      30.11R
FORT WAYNE     FLURRIES  16   8  71 W7        30.16R WCI   6
HUNTINGTON*    MOCLDY     8   1  73 W5        30.15S WCI   0
PERU/GRISSOM   CLEAR      4  -1  79 W6        30.16R WCI  -6
MARION*        CLEAR      3  -5  69 W3        30.18R

$$
INZ028>050-111200-
CENTRAL INDIANA

CITY           SKY/WX    TMP DP  RH WIND       PRES   REMARKS
LAFAYETTE      PTCLDY     9   3  77 NW7       30.23R WCI  -2
KOKOMO*        PTCLDY     7  -2  66 W7        30.18R WCI  -5
MUNCIE*        CLEAR      8   3  80 W5        30.17R WCI   0
INDIANAPOLIS   MOCLDY    12   5  73 W3        30.18

$$
MIZ043>046-050>051-056>058-064>065-071>073-077>080-111200-
SOUTHWEST LOWER MICHIGAN

CITY           SKY/WX    TMP DP  RH WIND       PRES   REMARKS
BATTLE CREEK   PTCLDY     9   6  88 W8        30.12R WCI  -3
BENTON HARBOR  CLOUDY    19   6  57 VRB6G20   30.17R WCI  11
COLDWATER*     CLOUDY    14  10  83 W3        30.12R
HILLSDALE*     CLOUDY    12   6  76 NW7       30.09R WCI   2
HOLLAND        LGT SNOW  15  10  80 VRB5      30.16R VSB 1   WCI   8
GRAND RAPIDS   MOCLDY    15   6  67 NW8       30.13R WCI   4
KALAMAZOO      CLOUDY    14   7  73 NW7       30.13R WCI   4
STURGIS*       CLOUDY    13  10  87 CALM      30.13R
THREE RIVERS*  FLURRIES  15  11  87 W3        30.15R

$$
OHZ001>008-015>018-024>025-111200-
NORTHWEST OHIO

CITY           SKY/WX    TMP DP  RH WIND       PRES   REMARKS
DEFIANCE       CLOUDY    16   9  74 W3        30.15R
FINDLAY        CLOUDY    13   8  81 W7        30.12R WCI   3
TOLEDO EXPRESS CLOUDY    14   6  70 W7        30.13R WCI   4
TOLEDO METCALF CLOUDY    14   4  64 NW9       30.14R WCI   2
LIMA           CLOUDY    14   9  80 W9        30.12R WCI   2

$$
AND FOR LAKE MICHIGAN COASTAL AND OPEN LAKE BUOY OBSERVATIONS

STATION/POSITION TEMP    WIND        PRES    VSBY  WAVE
                 AIR SEA DIR/SP/G                  HT/PER
                 (F)     (DEG/KT/KT) (MB)    (MI)  (FT/S)
CALUMET HARBOR    12                   N/A
MICHIGAN CITY     18     320/ 17/ 21   N/A
BURNS HARBOR      18     330/ 13/ 20 1022.4R
SAINT JOSEPH      20     310/ 16/ 21 1022.7R

$$
&&



USA.gov is the U.S. government's official web portal to all federal, state and local government web resources and services.